Overview Statistics Trail Chart Weather Telemetry Raw packets
 

This is the latest recevied weather packets stored in our database for station/object JF7BTK-10. If no packets are shown the sender has not sent any weather packets the latest 10 day(s).

<< 40 41 42 43 44 45 46 >>
Time Temp. Humidity Pressure Rain* Wind** Luminosity Snow
1788166686 21.67° C 83% 1011.2 hPa 0 mm - - -
1788165787 22.22° C 81% 1011.2 hPa 0 mm - - -
1788164887 22.22° C 78% 1011.5 hPa 0 mm - - -
1788163987 22.78° C 77% 1011 hPa 0 mm - - -
1788163087 22.78° C 76% 1011.1 hPa 0 mm - - -
1788162187 22.78° C 76% 1011.1 hPa 0 mm - - -
1788161294 23.33° C 74% 1011 hPa 0 mm - - -
1788160388 23.89° C 72% 1010.9 hPa 0 mm - - -
1788159487 24.44° C 71% 1010.6 hPa 0 mm - - -
1788158588 25° C 68% 1010.6 hPa 0 mm - - -
1788157688 26.11° C 68% 1010.2 hPa 0 mm - - -
1788156788 25.56° C 69% 1010.2 hPa 0 mm - - -
1788155887 25.56° C 69% 1010.2 hPa 0 mm - - -
1788154987 25.56° C 66% 1010.1 hPa 0 mm - - -
1788154087 26.11° C 66% 1010.1 hPa 0 mm - - -
1788153188 26.11° C 65% 1010.1 hPa 0 mm - - -
1788152288 27.22° C 62% 1010.3 hPa 0 mm - - -
1788151388 26.67° C 65% 1010.3 hPa 0 mm - - -
1788150488 26.67° C 62% 1010.4 hPa 0 mm - - -
1788149588 27.22° C 62% 1010.2 hPa 0 mm - - -
1788148688 26.67° C 62% 1010.4 hPa 0 mm - - -
1788147789 26.67° C 63% 1010.2 hPa 0 mm - - -
1788146887 26.11° C 65% 1010.2 hPa 0 mm - - -
1788145988 26.11° C 63% 1010.2 hPa 0 mm - - -
1788145087 26.11° C 63% 1010.3 hPa 0 mm - - -

* Rain latest hour (hover to see other rain measurements)
** Current wind speed in m/s (hover to see current wind gust speed)